[[{"header":{"parameterUnit":"m.s-1","parameterCategory":1,"la1":30.2991,"la2":30.254,"lo1":-89.0895,"lo2":-89.0444,"dy":0.0017,"dx":0.0017,"nx":28,"ny":28,"refTime":"2023-09-02T03:00:00:Z","depth":0,"parameterNumber":2,"parameterNumberName":"U-component_of_WINDS"},"data":[0,0,0,0,0,0,0,0,0,0,0,0,0,0,0,0,0,0,0,0,0,0,0,0,0,0,0,0,0,0,0,0,0,0,0,0,0,0,0,0,0,0,0,0,0,0,0,0,0,0,0,0,0,0,0,0,0,0,-3.288,-3.2881,0,-3.2921,-3.2921,-3.2922,-3.2856,-3.2854,-3.2851,-3.2849,-3.2889,-3.2893,-3.2896,0,0,0,0,0,0,0,0,0,0,0,0,0,-3.2744,-3.2747,-3.288,-3.2881,-3.2881,-3.2921,-3.2921,-3.2922,-3.2856,-3.2853,-3.2851,-3.2848,-3.2888,-3.2892,-3.2896,0,0,0,0,0,0,0,0,0,0,0,0,0,-3.2796,-3.2748,-3.288,-3.2853,-3.2851,-3.2921,-3.2921,-3.2922,-3.2857,-3.2853,-3.285,-3.2847,-3.2887,-3.2892,-3.2897,-3.2994,0,0,-3.2911,-3.2913,0,0,0,0,0,0,0,0,-3.2793,-3.2801,-3.2857,-3.2855,-3.2853,-3.288,-3.2888,-3.2946,-3.2858,-3.2855,-3.2849,-3.2845,-3.2889,-3.2893,-3.2908,-3.2996,-3.2997,-3.2912,-3.2914,-3.2916,-3.2918,0,0,0,0,0,0,0,-3.2789,-3.2799,-3.2896,-3.2857,-3.2855,-3.2839,-3.2842,-3.2899,-3.289,-3.2855,-3.285,-3.2856,-3.2887,-3.2904,-3.2909,-3.2998,-3.2911,-3.2916,-3.2919,-3.292,-3.3167,-3.3171,0,0,0,0,0,0,-3.2789,-3.2796,-3.2895,-3.2897,-3.2814,-3.2844,-3.2848,-3.2875,-3.2889,-3.2888,-3.2859,-3.2852,-3.2897,-3.2903,-3.291,-3.3025,-3.2916,-3.2921,-3.2924,-3.3164,-3.3168,-3.3172,0,0,0,0,0,0,-3.2787,-3.2799,-3.2893,-3.2846,-3.2856,-3.285,-3.288,-3.2877,-3.2894,-3.2892,-3.289,-3.2877,-3.2895,-3.2903,-3.2974,-3.3025,-3.2923,-3.2927,-3.3159,-3.3165,-3.317,-3.3255,0,0,0,0,0,0,-3.2783,-3.2798,-3.2835,-3.2847,-3.2859,-3.2957,-3.2884,-3.288,-3.2902,-3.2895,-3.2909,-3.2909,-3.2893,-3.2967,-3.2978,-3.303,-3.2931,-3.3155,-3.3162,-3.3168,-3.3248,-3.3263,-3.3276,0,0,0,0,0,-3.2778,-3.2857,-3.2838,-3.285,-3.2906,-3.296,-3.2967,-3.2948,-3.2907,-3.2944,-3.2943,-3.2908,-3.3018,-3.2975,-3.2987,-3.3041,-3.3151,-3.316,-3.3168,-3.3242,-3.326,-3.3276,0,0,0,0,0,0,-3.2851,-3.2858,-3.2836,-3.2922,-3.2941,-3.2949,-3.2995,-3.2968,-3.2999,-3.299,-3.2965,-3.2968,-3.3044,-3.3049,-3.3001,-3.3136,-3.3078,-3.3089,-3.3129,-3.3147,-3.3161,-3.3158,-3.2935,0,0,0,0,0,-3.2878,-3.2922,-3.2925,-3.3,-3.3011,-3.3002,-3.3024,-3.3008,-3.3026,-3.3034,-3.3038,-3.3057,-3.3096,-3.3122,-3.3157,-3.3249,-3.3251,-3.3292,-3.3306,-3.3318,-3.3327,-3.3376,-3.3394,-3.3199,-3.3199,-3.3199,0,0,-3.2932,-3.2941,-3.297,-3.3015,-3.3028,-3.3073,-3.3009,-3.306,-3.3093,-3.3042,-3.3108,-3.3112,-3.3132,-3.3213,-3.3249,-3.322,-3.3382,-3.3328,-3.3337,-3.3341,-3.3386,-3.3405,-3.3421,-3.3205,-3.3204,-3.3203,0,0,-3.3054,-3.3066,-3.3129,-3.3144,-3.3164,-3.3157,-3.3173,-3.3185,-3.3186,-3.3253,-3.3215,-3.3254,-3.3322,-3.3337,-3.3354,-3.3483,-3.3451,-3.3495,-3.3568,-3.3616,-3.3631,-3.3645,-3.3691,-3.3707,-3.3505,-3.3505,-3.3505,0,-3.3118,-3.3186,-3.3165,-3.3219,-3.324,-3.3196,-3.326,-3.3275,-3.3306,-3.3321,-3.3288,-3.3372,-3.3382,-3.3466,-3.3497,-3.3513,-3.3529,-3.3493,-3.3631,-3.3644,-3.3657,-3.37,-3.3717,-3.351,-3.351,-3.3509,-3.3509,0,-3.3264,-3.3312,-3.3361,-3.3393,-3.3419,-3.3478,-3.3465,-3.3494,-3.3476,-3.3473,-3.3541,-3.3552,-3.3589,-3.3608,-3.359,-3.369,-3.3671,-3.3635,-3.3576,-3.3681,-3.3721,-3.3737,-3.3517,-3.3516,-3.3514,-3.3513,0,0,-3.3433,-3.3453,-3.3471,-3.3485,-3.3504,-3.3541,-3.3597,-3.3634,-3.3659,-3.3683,-3.3729,-3.3788,-3.3755,-3.3774,-3.3758,-3.38,-3.3901,-3.3758,-3.3759,-3.3784,-3.4011,-3.4037,-3.4057,-3.3881,-3.3884,-3.3886,-3.4009,0,-3.3554,-3.3652,-3.3635,-3.373,-3.3774,-3.3734,-3.3783,-3.38,-3.3799,-3.3836,-3.3834,-3.3876,-3.3829,-3.3841,-3.388,-3.388,-3.3946,-3.3871,-3.3923,-3.3925,-3.3919,-3.4078,-3.4106,-3.4221,-3.4025,-3.4027,-3.4029,0,-3.3708,-3.3738,-3.3838,-3.3851,-3.3868,-3.3913,-3.3945,-3.3981,-3.4,-3.3996,-3.4018,-3.3994,-3.405,-3.3991,-3.4068,-3.4018,-3.4039,-3.4042,-3.4046,-3.4049,-3.3983,-3.4085,-3.4258,-3.4275,-3.4054,-3.4052,-3.405,0,-3.3821,-3.3885,-3.3953,-3.3966,-3.3984,-3.4016,-3.4024,-3.404,-3.4063,-3.4092,-3.4106,-3.4141,-3.416,-3.4187,-3.4173,-3.4131,-3.4253,-3.4192,-3.4251,-3.4251,-3.4277,-3.4276,-3.4455,-3.4292,-3.4292,-3.4291,-3.4291,0,-3.3957,-3.402,-3.4004,-3.4046,-3.4115,-3.4094,-3.4163,-3.4167,-3.4181,-3.4223,-3.419,-3.423,-3.4209,-3.4247,-3.4237,-3.4302,-3.4311,-3.4309,-3.4306,-3.4312,-3.4312,-3.4324,-3.4316,-3.4296,-3.4295,-3.4294,-3.4293,0,-3.4094,-3.4086,-3.4157,-3.4168,-3.4172,-3.4223,-3.4231,-3.427,-3.4267,-3.432,-3.4331,-3.4326,-3.4369,-3.4358,-3.4405,-3.4398,-3.4481,-3.4467,-3.4474,-3.4471,-3.453,-3.4524,-3.4723,-3.4747,-3.4569,-3.4571,-3.4572,0,-3.4182,-3.4229,-3.4245,-3.4271,-3.4282,-3.4324,-3.4347,-3.4329,-3.4355,-3.4381,-3.4417,-3.4457,-3.4489,-3.456,-3.456,-3.4596,-3.4582,-3.465,-3.4588,-3.4593,-3.4583,-3.458,-3.4585,-3.4662,-3.4664,-3.4665,-3.4667,0,-3.4338,-3.4331,-3.4367,-3.4402,-3.4431,-3.4457,-3.4481,-3.4503,-3.4487,-3.4518,-3.4562,-3.4587,-3.4635,-3.4676,-3.4709,-3.4717,-3.469,-3.4687,-3.4702,-3.4708,-3.471,-3.471,-3.4507,-3.4682,-3.468,-3.4679,-3.4678,-3.4678,-3.4452,-3.4492,-3.451,-3.4551,-3.4566,-3.4589,-3.4626,-3.4628,-3.4664,-3.4702,-3.4689,-3.474,-3.4758,-3.4799,-3.4812,-3.4851,-3.4826,-3.4848,-3.4853,-3.4859,-3.4866,-3.4705,-3.4857,-3.4857,-3.4856,-3.4856,-3.4856,0,-3.4606,-3.4615,-3.4653,-3.4687,-3.4719,-3.4691,-3.4715,-3.4744,-3.4789,-3.4808,-3.484,-3.4891,-3.493,-3.4934,-3.4971,-3.5001,-3.4989,-3.5011,-3.5009,-3.5011,-3.4887,-3.487,-3.502,-3.502,-3.502,-3.502,-3.502,-3.502,-3.469,-3.4756,-3.4752,-3.4826,-3.4835,-3.4884,-3.49,-3.4921,-3.4936,-3.4994,-3.5027,-3.5029,-3.5042,-3.508,-3.5115,-3.5115,-3.513,-3.5157,-3.5152,-3.5036,-3.502,-3.5004,-3.4988,-3.516,-3.516,-3.5272,-3.5273,-3.5274]},{"header":{"parameterUnit":"m.s-1","parameterCategory":1,"la1":30.2991,"la2":30.254,"lo1":-89.0895,"lo2":-89.0444,"dy":0.0017,"dx":0.0017,"nx":28,"ny":28,"refTime":"2023-09-02T03:00:00:Z","depth":0,"parameterNumber":3,"parameterNumberName":"V-component_of_WINDS"},"data":[0,0,0,0,0,0,0,0,0,0,0,0,0,0,0,0,0,0,0,0,0,0,0,0,0,0,0,0,0,0,0,0,0,0,0,0,0,0,0,0,0,0,0,0,0,0,0,0,0,0,0,0,0,0,0,0,0,0,-2.2669,-2.267,0,-2.2797,-2.2798,-2.28,-2.2836,-2.2836,-2.2835,-2.2834,-2.2965,-2.2969,-2.2973,0,0,0,0,0,0,0,0,0,0,0,0,0,-2.2454,-2.2457,-2.2668,-2.267,-2.2672,-2.2797,-2.2799,-2.28,-2.2836,-2.2836,-2.2835,-2.2834,-2.2964,-2.2968,-2.2973,0,0,0,0,0,0,0,0,0,0,0,0,0,-2.2561,-2.2459,-2.2668,-2.2705,-2.2709,-2.2796,-2.2799,-2.2801,-2.2837,-2.2836,-2.2834,-2.2833,-2.2962,-2.2968,-2.2974,-2.3034,0,0,-2.2993,-2.2996,0,0,0,0,0,0,0,0,-2.2555,-2.2569,-2.2698,-2.2702,-2.2708,-2.28,-2.2771,-2.2879,-2.2837,-2.2788,-2.2834,-2.2833,-2.2911,-2.2921,-2.2947,-2.304,-2.3045,-2.2994,-2.2997,-2.3,-2.3002,0,0,0,0,0,0,0,-2.2547,-2.2563,-2.2719,-2.27,-2.2706,-2.2715,-2.2729,-2.2791,-2.2854,-2.2792,-2.2795,-2.281,-2.2913,-2.2941,-2.2951,-2.3047,-2.2993,-2.2999,-2.3003,-2.3005,-2.3195,-2.3196,0,0,0,0,0,0,-2.2534,-2.2557,-2.2715,-2.2723,-2.2627,-2.2719,-2.2735,-2.2771,-2.2853,-2.2865,-2.2811,-2.2811,-2.2931,-2.2943,-2.2955,-2.303,-2.3,-2.3006,-2.3009,-2.3193,-2.3195,-2.3196,0,0,0,0,0,0,-2.2529,-2.2547,-2.271,-2.2641,-2.2662,-2.2724,-2.2764,-2.2774,-2.2802,-2.2867,-2.2878,-2.2828,-2.2931,-2.2947,-2.3014,-2.3035,-2.3009,-2.3014,-2.3192,-2.3194,-2.3196,-2.318,0,0,0,0,0,0,-2.2523,-2.2546,-2.2569,-2.2641,-2.2666,-2.2766,-2.2766,-2.2777,-2.2813,-2.2815,-2.2886,-2.2897,-2.2931,-2.3004,-2.302,-2.3043,-2.3019,-2.319,-2.3193,-2.3195,-2.3179,-2.3182,-2.3184,0,0,0,0,0,-2.2515,-2.2559,-2.257,-2.2589,-2.2696,-2.2768,-2.2782,-2.282,-2.2815,-2.2839,-2.288,-2.2895,-2.3031,-2.3011,-2.3029,-2.3054,-2.3189,-2.3192,-2.3195,-2.3178,-2.3181,-2.3183,0,0,0,0,0,0,-2.2487,-2.2569,-2.2582,-2.2651,-2.2702,-2.2774,-2.2805,-2.2822,-2.2875,-2.2875,-2.292,-2.2936,-2.2999,-2.3034,-2.3011,-2.3116,-2.311,-2.3117,-2.3091,-2.3095,-2.3097,-2.3087,-2.3024,0,0,0,0,0,-2.249,-2.2541,-2.261,-2.2664,-2.2689,-2.2742,-2.2775,-2.28,-2.2855,-2.2876,-2.2923,-2.2975,-2.3029,-2.3064,-2.3118,-2.3185,-2.32,-2.3211,-2.3213,-2.3215,-2.322,-2.3257,-2.3263,-2.3206,-2.3206,-2.3206,0,0,-2.2494,-2.2545,-2.2575,-2.266,-2.2702,-2.2754,-2.276,-2.2815,-2.2853,-2.2884,-2.2951,-2.2987,-2.3048,-2.3115,-2.3147,-2.3145,-2.3239,-2.3218,-2.3219,-2.3223,-2.3261,-2.3266,-2.3271,-2.3208,-2.3208,-2.3207,0,0,-2.2529,-2.2573,-2.2623,-2.2666,-2.273,-2.2766,-2.2777,-2.2847,-2.2872,-2.2939,-2.2963,-2.301,-2.3103,-2.3145,-2.3179,-2.323,-2.3245,-2.3246,-2.3257,-2.3293,-2.3298,-2.3302,-2.332,-2.3326,-2.3251,-2.3251,-2.3251,0,-2.2527,-2.2606,-2.2647,-2.27,-2.2737,-2.2768,-2.2819,-2.2858,-2.2936,-2.296,-2.2958,-2.3075,-2.3118,-2.3196,-2.3208,-2.3235,-2.3249,-2.3238,-2.3294,-2.3299,-2.3303,-2.3321,-2.3327,-2.3251,-2.3251,-2.3251,-2.3251,0,-2.2599,-2.2654,-2.2687,-2.2762,-2.2802,-2.2854,-2.2902,-2.2938,-2.296,-2.2996,-2.3064,-2.3117,-2.3182,-2.3202,-2.3224,-2.3283,-2.328,-2.3285,-2.328,-2.3307,-2.3325,-2.3332,-2.325,-2.325,-2.325,-2.3251,0,0,-2.262,-2.2718,-2.2729,-2.2763,-2.2837,-2.2879,-2.2933,-2.2996,-2.3026,-2.3079,-2.3124,-2.3202,-2.3208,-2.3246,-2.3273,-2.3305,-2.3342,-2.3307,-2.3309,-2.3311,-2.3409,-2.3404,-2.3411,-2.3353,-2.3354,-2.3355,-2.3404,0,-2.2664,-2.276,-2.2798,-2.2877,-2.2927,-2.2958,-2.3004,-2.3054,-2.3088,-2.3136,-2.3175,-2.3229,-2.3232,-2.3255,-2.3288,-2.333,-2.3362,-2.3327,-2.3395,-2.3397,-2.3378,-2.342,-2.3415,-2.3458,-2.3411,-2.3412,-2.3413,0,-2.2727,-2.2781,-2.2864,-2.2931,-2.2954,-2.2995,-2.3056,-2.3102,-2.3159,-2.3182,-2.3225,-2.325,-2.3307,-2.3298,-2.3377,-2.3352,-2.3382,-2.3407,-2.341,-2.3417,-2.3406,-2.3428,-2.3473,-2.3479,-2.3424,-2.3423,-2.3422,0,-2.2733,-2.2826,-2.2888,-2.2917,-2.2997,-2.3025,-2.3059,-2.3116,-2.3151,-2.3205,-2.3229,-2.3288,-2.3321,-2.3366,-2.3407,-2.3397,-2.3481,-2.3476,-2.3501,-2.35,-2.3517,-2.3515,-2.3567,-2.3538,-2.3538,-2.3537,-2.3537,0,-2.2777,-2.2826,-2.2892,-2.2929,-2.2986,-2.303,-2.3084,-2.3121,-2.3171,-2.3216,-2.3246,-2.3288,-2.3339,-2.3388,-2.342,-2.348,-2.3494,-2.3514,-2.3522,-2.3511,-2.3508,-2.3531,-2.3528,-2.3539,-2.3539,-2.3538,-2.3538,0,-2.2792,-2.2838,-2.2907,-2.2978,-2.2997,-2.3035,-2.3095,-2.3133,-2.3169,-2.3226,-2.3242,-2.3299,-2.3358,-2.3403,-2.3479,-2.3501,-2.3564,-2.3573,-2.3544,-2.3548,-2.3571,-2.3567,-2.3638,-2.3649,-2.3612,-2.3613,-2.3613,0,-2.2817,-2.2856,-2.293,-2.2963,-2.2998,-2.305,-2.3087,-2.3132,-2.3169,-2.3237,-2.3266,-2.3327,-2.3378,-2.347,-2.3518,-2.3576,-2.3586,-2.3607,-2.3595,-2.3583,-2.3586,-2.3583,-2.3587,-2.3608,-2.3608,-2.3608,-2.3609,0,-2.2855,-2.2876,-2.2928,-2.2989,-2.3032,-2.3081,-2.3131,-2.3156,-2.321,-2.325,-2.3311,-2.335,-2.3428,-2.3488,-2.3551,-2.3587,-2.3607,-2.3612,-2.3621,-2.361,-2.3591,-2.3601,-2.3547,-2.361,-2.361,-2.361,-2.361,-2.361,-2.2876,-2.2912,-2.297,-2.3027,-2.3069,-2.3116,-2.3154,-2.3196,-2.3247,-2.3314,-2.3338,-2.34,-2.3456,-2.3543,-2.3579,-2.3629,-2.3629,-2.3642,-2.3645,-2.3648,-2.3646,-2.3584,-2.364,-2.364,-2.364,-2.364,-2.364,0,-2.2915,-2.2954,-2.3007,-2.3076,-2.3121,-2.3136,-2.3192,-2.3229,-2.3283,-2.3334,-2.3384,-2.3453,-2.3511,-2.3564,-2.3625,-2.3654,-2.3664,-2.3668,-2.3666,-2.3674,-2.3642,-2.3628,-2.3659,-2.3659,-2.3659,-2.3659,-2.3659,-2.3659,-2.2941,-2.3002,-2.303,-2.3113,-2.3152,-2.3213,-2.3244,-2.3286,-2.3327,-2.3404,-2.3452,-2.3486,-2.3538,-2.3603,-2.3657,-2.3671,-2.3692,-2.3693,-2.3709,-2.3679,-2.3676,-2.3674,-2.3661,-2.3697,-2.3698,-2.3737,-2.3737,-2.3737]}]]